Baudette, MN

7:56 PM CST on February 20, 2017 (GMT -0600)
Baudette International

Weather History for KBDE - November, 2012

Change the Weather History Date:

Wednesday, November 28, 2012

  Actual Average Record
Temperature  
Mean Temperature 13 °F -  
Max Temperature 28 °F 24 °F 45 °F (1962)
Min Temperature -2 °F 8 °F -27 °F (1985)
Degree Days  
Heating Degree Days 52    
Moisture  
Dew Point 10 °F    
Average Humidity 86    
Maximum Humidity 93    
Minimum Humidity 79    
Precipitation  
Precipitation 0.00 in - - ()
Sea Level Pressure  
Sea Level Pressure 30.18 in    
Wind  
Wind Speed 7 mph (WSW)    
Max Wind Speed 18 mph    
Max Gust Speed 24 mph    
Visibility 8 miles    
Events Snow    
Averages and records for this station are not official NWS values.
T = Trace of Precipitation, MM = Missing Value Source: NWS Daily Summary

Daily Weather History Graph

Daily Weather History Graph

Search for Another Location

Airport or City:

Trip Planner

Search our weather history database for the weather conditions in past years. The results will help you decide how hot, cold, wet, or windy it might be!

Date:

Astronomy

Nov. 28, 2012 Rise Set
Actual Time 7:46 AM CST 4:26 PM CST
Civil Twilight 7:10 AM CST 5:02 PM CST
Nautical Twilight 6:31 AM CST 5:41 PM CST
Astronomical Twilight 5:53 AM CST 6:19 PM CST
Moon 4:41 PM CST (11/28) 7:45 AM CST (11/28)
Length of Visible Light 9h 51m
Length of Day
8h 39m
Full, 100% of the Moon is Illuminated
Nov 28
Full
Dec 6
Last Quarter
Dec 13
New
Dec 19
First Quarter
Dec 28
Full

Hourly Weather History & Observations

Time (CST) Temp. Windchill Dew Point Humidity Pressure Visibility Wind Dir Wind Speed Gust Speed Precip Events Conditions
12:07 AM 1.4 °F -6.2 °F -2.2 °F 85% 30.23 in 10.0 mi Variable 3.5 mph - N/A   Mostly Cloudy
12:53 AM 1.0 °F -8.7 °F -2.9 °F 83% 30.32 in 10.0 mi West 4.6 mph - N/A   Mostly Cloudy
1:11 AM -0.4 °F -8.3 °F -4.0 °F 85% 30.23 in 10.0 mi West 3.5 mph - N/A   Scattered Clouds
1:29 AM -0.4 °F -8.3 °F -2.2 °F 92% 30.23 in 10.0 mi WSW 3.5 mph - N/A   Mostly Cloudy
1:53 AM -0.0 °F -7.9 °F -2.9 °F 88% 30.32 in 10.0 mi WSW 3.5 mph - N/A   Overcast
2:53 AM -2.0 °F -12.2 °F -5.1 °F 87% 30.33 in 10.0 mi SSW 4.6 mph - N/A   Overcast
3:53 AM 1.9 °F -5.6 °F -2.0 °F 83% 30.32 in 10.0 mi SSW 3.5 mph - N/A   Overcast
4:53 AM 3.9 °F - -0.0 °F 84% 30.30 in 10.0 mi Calm Calm - N/A   Overcast
5:53 AM 3.9 °F -8.2 °F 1.0 °F 88% 30.30 in 7.0 mi SSW 6.9 mph - N/A   Overcast
6:53 AM 7.0 °F -5.7 °F 3.9 °F 87% 30.29 in 10.0 mi SW 8.1 mph - 0.00 in   Overcast
7:53 AM 8.1 °F -2.0 °F 5.0 °F 87% 30.27 in 9.0 mi South 5.8 mph - N/A   Overcast
8:39 AM 8.6 °F -2.6 °F 6.8 °F 92% 30.17 in 5.0 mi South 6.9 mph - N/A   Overcast
8:53 AM 9.0 °F -2.2 °F 6.1 °F 88% 30.25 in 3.0 mi South 6.9 mph - N/A   Overcast
9:12 AM 10.4 °F 0.8 °F 6.8 °F 85% 30.16 in 2.5 mi South 5.8 mph - 0.00 in Snow Light Snow
9:26 AM 10.4 °F -2.4 °F 8.6 °F 92% 30.16 in 1.8 mi SSW 9.2 mph - 0.00 in Snow Light Snow
9:50 AM 12.2 °F -0.2 °F 10.4 °F 92% 30.15 in 2.0 mi SSW 9.2 mph - 0.00 in Snow Light Snow
9:53 AM 12.9 °F 1.6 °F 10.0 °F 88% 30.23 in 2.0 mi SSW 8.1 mph - 0.00 in Snow Light Snow
10:26 AM 14.0 °F -0.8 °F 10.4 °F 86% 30.14 in 4.0 mi SW 13.8 mph - 0.00 in   Overcast
10:53 AM 15.1 °F 0.5 °F 12.0 °F 88% 30.21 in 7.0 mi SSW 13.8 mph - 0.00 in   Overcast
11:53 AM 18.0 °F 4.8 °F 14.0 °F 84% 30.17 in 10.0 mi South 12.7 mph - N/A   Overcast
12:53 PM 19.9 °F 7.3 °F 16.0 °F 85% 30.12 in 10.0 mi SSW 12.7 mph - N/A   Mostly Cloudy
1:23 PM 21.2 °F 10.9 °F 15.8 °F 80% 30.03 in 10.0 mi SSW 9.2 mph - N/A   Mostly Cloudy
1:53 PM 21.9 °F 9.8 °F 17.1 °F 82% 30.10 in 10.0 mi SW 12.7 mph - N/A   Overcast
2:53 PM 25.0 °F 19.3 °F 21.0 °F 85% 30.09 in 10.0 mi WSW 4.6 mph - N/A   Overcast
3:50 PM 24.8 °F 20.5 °F 21.2 °F 86% 30.00 in 10.0 mi SW 3.5 mph - N/A   Overcast
3:53 PM 25.0 °F 20.7 °F 21.0 °F 85% 30.08 in 10.0 mi SW 3.5 mph - N/A   Overcast
4:53 PM 27.0 °F 21.6 °F 23.0 °F 85% 30.09 in 10.0 mi WNW 4.6 mph - N/A   Overcast
5:53 PM 28.0 °F 24.2 °F 23.0 °F 81% 30.11 in 10.0 mi Variable 3.5 mph - N/A   Overcast
6:51 PM 24.8 °F 11.5 °F 21.2 °F 86% 30.05 in 9.0 mi NNW 17.3 mph 21.9 mph N/A   Overcast
6:53 PM 25.0 °F 12.2 °F 21.9 °F 88% 30.12 in 9.0 mi NNW 16.1 mph - N/A   Overcast
7:24 PM 21.2 °F 7.3 °F 19.4 °F 93% 30.07 in 9.0 mi NNW 16.1 mph 23.0 mph N/A   Overcast
7:48 PM 19.4 °F 4.1 °F 15.8 °F 86% 30.08 in 10.0 mi NNW 18.4 mph 24.2 mph N/A   Overcast
7:53 PM 19.9 °F 5.7 °F 15.1 °F 81% 30.16 in 10.0 mi NNW 16.1 mph - N/A   Overcast
8:13 PM 17.6 °F 2.7 °F 12.2 °F 79% 30.09 in 10.0 mi NNW 16.1 mph 24.2 mph N/A   Overcast
8:53 PM 15.1 °F 0.5 °F 10.0 °F 80% 30.18 in 10.0 mi North 13.8 mph - N/A   Mostly Cloudy
9:06 PM 14.0 °F -0.2 °F 8.6 °F 79% 30.10 in 10.0 mi North 12.7 mph - N/A   Scattered Clouds
9:53 PM 12.0 °F -1.3 °F 8.1 °F 84% 30.20 in 10.0 mi North 10.4 mph - N/A   Clear
10:53 PM 10.9 °F -0.8 °F 7.0 °F 84% 30.21 in 10.0 mi North 8.1 mph - N/A   Clear
11:53 PM 9.0 °F -2.2 °F 5.0 °F 84% 30.24 in 10.0 mi North 6.9 mph - N/A   Clear